Pauls Valley, OK

4:54 PM CST on November 20, 2019 (GMT -0600)
Pauls Valley Municipal

Weather History for KPVJ - October, 2019

Change the Weather History Date:

Saturday, October 12, 2019

  Actual Average (KADH) Record (KADH)
Temperature  
Mean Temperature 46 °F -  
Max Temperature 65 °F 77 °F 94 °F (1979)
Min Temperature 28 °F 51 °F 32 °F (1987)
Degree Days  
Heating Degree Days 18    
Moisture  
Dew Point 27 °F    
Average Humidity 59    
Maximum Humidity 100    
Minimum Humidity 16    
Precipitation  
Precipitation 0.00 in - - ()
Sea Level Pressure  
Sea Level Pressure 30.18 in    
Wind  
Wind Speed 2 mph ()    
Max Wind Speed 13 mph    
Max Gust Speed 17 mph    
Visibility 10.0 miles    
Events      
Averages and records for this station are not official NWS values.
T = Trace of Precipitation, MM = Missing Value Source: Averaged Metar Reports

Daily Weather History Graph

Daily Weather History Graph

Search for Another Location

Airport or City:

Astronomy

Oct. 12, 2019 Rise Set
Actual Time 7:32 AM CDT 6:58 PM CDT
Civil Twilight 7:06 AM CDT 7:23 PM CDT
Nautical Twilight 6:37 AM CDT 7:52 PM CDT
Astronomical Twilight 6:08 AM CDT 8:21 PM CDT
Moon 6:50 PM CDT (10/12) 6:16 AM CDT (10/12)
Length of Visible Light 12h 16m
Length of Day
11h 26m
Waxing Gibbous, 99% of the Moon is Illuminated
Oct 12
Waxing Gibbous
Oct 13
Full
Oct 21
Last Quarter
Oct 27
New
Nov 4
First Quarter

Hourly Weather History & Observations

Time (CDT) Temp. Windchill Dew Point Humidity Pressure Visibility Wind Dir Wind Speed Gust Speed Precip Events Conditions
12:15 AM 35.4 °F - 32.0 °F 87% 30.31 in 10.0 mi Calm Calm - N/A   Clear
12:35 AM 33.6 °F - 31.8 °F 93% 30.30 in 10.0 mi Calm Calm - N/A   Clear
12:55 AM 34.0 °F - 32.4 °F 94% 30.30 in 10.0 mi Calm Calm - N/A   Clear
1:15 AM 33.3 °F - 32.0 °F 95% 30.30 in 7.0 mi Calm Calm - N/A   Clear
1:35 AM 34.2 °F - 31.5 °F 90% 30.29 in 10.0 mi Calm Calm - N/A   Clear
2:15 AM 32.0 °F - 32.0 °F 100% 30.29 in 10.0 mi Calm Calm - N/A   Clear
2:35 AM 32.9 °F - 32.9 °F 100% 30.29 in 10.0 mi Calm Calm - N/A   Clear
2:55 AM 31.6 °F - 31.6 °F 100% 30.28 in 10.0 mi Calm Calm - N/A   Clear
3:15 AM 32.4 °F - 32.4 °F 100% 30.28 in 10.0 mi Calm Calm - N/A   Clear
3:35 AM 32.9 °F - 32.9 °F 100% 30.27 in 10.0 mi Calm Calm - N/A   Clear
3:55 AM 32.2 °F - 32.2 °F 100% 30.27 in 10.0 mi Calm Calm - N/A   Clear
4:15 AM 32.0 °F - 32.0 °F 100% 30.27 in 10.0 mi Calm Calm - N/A   Clear
4:35 AM 31.1 °F - 31.1 °F 100% 30.26 in 10.0 mi Calm Calm - N/A   Clear
4:55 AM 29.8 °F - 29.8 °F 100% 30.27 in 10.0 mi Calm Calm - N/A   Clear
5:15 AM 29.8 °F - 29.8 °F 100% 30.27 in 10.0 mi Calm Calm - N/A   Clear
5:35 AM 30.0 °F - 30.0 °F 100% 30.27 in 10.0 mi Calm Calm - N/A   Clear
5:55 AM 29.5 °F - 29.5 °F 100% 30.27 in 10.0 mi Calm Calm - N/A   Clear
6:15 AM 28.8 °F - 28.6 °F 99% 30.27 in 10.0 mi Calm Calm - N/A   Clear
6:35 AM 28.4 °F - 28.4 °F 100% 30.27 in 10.0 mi Calm Calm - N/A   Clear
6:55 AM 29.1 °F - 28.9 °F 99% 30.27 in 10.0 mi Calm Calm - N/A   Clear
7:15 AM 28.8 °F - 28.8 °F 100% 30.27 in 10.0 mi Calm Calm - N/A   Clear
7:35 AM 29.1 °F - 29.1 °F 100% 30.27 in 10.0 mi Calm Calm - N/A   Clear
7:55 AM 29.3 °F - 29.3 °F 100% 30.27 in 10.0 mi Calm Calm - N/A   Clear
8:15 AM 30.0 °F - 30.0 °F 100% 30.27 in 10.0 mi Calm Calm - N/A   Clear
8:35 AM 31.3 °F - 31.3 °F 100% 30.27 in 10.0 mi Calm Calm - N/A   Clear
8:55 AM 33.4 °F - 32.9 °F 98% 30.27 in 10.0 mi Calm Calm - N/A   Clear
9:15 AM 37.0 °F - 33.4 °F 87% 30.27 in 10.0 mi Calm Calm - N/A   Clear
9:35 AM 40.6 °F - 34.0 °F 77% 30.28 in 10.0 mi Calm Calm - N/A   Clear
9:55 AM 44.4 °F 42.0 °F 34.7 °F 69% 30.27 in 10.0 mi SSW 4.6 mph - N/A   Clear
10:15 AM 47.8 °F - 30.6 °F 51% 30.27 in 10.0 mi SSW 6.9 mph - N/A   Clear
10:35 AM 50.7 °F - 26.8 °F 40% 30.27 in 10.0 mi SSW 6.9 mph - N/A   Clear
10:55 AM 52.7 °F - 24.6 °F 34% 30.27 in 10.0 mi SW 8.1 mph - N/A   Clear
11:15 AM 55.4 °F - 24.4 °F 30% 30.26 in 10.0 mi SSW 10.4 mph - N/A   Clear
11:35 AM 57.2 °F - 23.4 °F 27% 30.26 in 10.0 mi SW 8.1 mph - N/A   Clear
11:55 AM 58.3 °F - 22.8 °F 25% 30.25 in 10.0 mi WSW 10.4 mph - N/A   Clear
12:15 PM 58.6 °F - 23.4 °F 26% 30.23 in 10.0 mi SSW 9.2 mph - N/A   Clear
12:35 PM 60.1 °F - 22.3 °F 23% 30.23 in 10.0 mi SSW 11.5 mph - N/A   Clear
12:55 PM 61.3 °F - 21.6 °F 22% 30.21 in 10.0 mi SW 6.9 mph - N/A   Clear
1:15 PM 61.3 °F - 21.2 °F 21% 30.20 in 10.0 mi SSW 10.4 mph - N/A   Clear
1:35 PM 61.9 °F - 19.2 °F 19% 30.18 in 10.0 mi SSW 8.1 mph - N/A   Clear
1:55 PM 62.6 °F - 18.7 °F 18% 30.17 in 10.0 mi SSE 5.8 mph 17.3 mph N/A   Clear
2:15 PM 63.7 °F - 18.5 °F 18% 30.16 in 10.0 mi SW 9.2 mph - N/A   Clear
2:35 PM 64.0 °F - 17.6 °F 17% 30.14 in 10.0 mi South 5.8 mph - N/A   Clear
2:55 PM 63.9 °F - 17.8 °F 17% 30.13 in 10.0 mi SSW 5.8 mph - N/A   Clear
3:15 PM 65.3 °F - 18.9 °F 17% 30.12 in 10.0 mi SW 11.5 mph - N/A   Clear
3:35 PM 65.8 °F - 18.3 °F 16% 30.10 in 10.0 mi SW 8.1 mph - N/A   Clear
3:55 PM 65.5 °F - 18.9 °F 17% 30.09 in 10.0 mi SSW 11.5 mph 16.1 mph N/A   Clear
4:15 PM 65.5 °F - 18.0 °F 16% 30.09 in 10.0 mi South 9.2 mph - N/A   Clear
4:35 PM 65.5 °F - 18.5 °F 16% 30.08 in 10.0 mi South 8.1 mph - N/A   Clear
4:55 PM 65.7 °F - 19.2 °F 17% 30.07 in 10.0 mi SSW 12.7 mph 16.1 mph N/A   Clear
5:15 PM 64.9 °F - 19.4 °F 17% 30.06 in 10.0 mi South 5.8 mph - N/A   Clear
5:35 PM 64.8 °F - 19.9 °F 18% 30.05 in 10.0 mi SSW 9.2 mph - N/A   Clear
5:55 PM 63.9 °F - 21.0 °F 19% 30.05 in 10.0 mi South 6.9 mph - N/A   Clear
6:15 PM 62.8 °F - 21.9 °F 21% 30.04 in 10.0 mi South 4.6 mph - N/A   Clear
6:35 PM 61.3 °F - 23.7 °F 24% 30.04 in 10.0 mi South 4.6 mph - N/A   Clear
6:55 PM 58.5 °F - 26.4 °F 29% 30.04 in 10.0 mi Calm Calm - N/A   Clear
7:15 PM 56.5 °F - 28.0 °F 34% 30.03 in 10.0 mi Calm Calm - N/A   Clear
7:35 PM 54.3 °F - 29.1 °F 38% 30.03 in 10.0 mi SSE 3.5 mph - N/A   Clear
7:55 PM 53.6 °F - 29.5 °F 40% 30.03 in 10.0 mi SSE 3.5 mph - N/A   Clear
8:35 PM 51.1 °F - 30.4 °F 45% 30.04 in 10.0 mi SSE 3.5 mph - N/A   Clear
8:55 PM 50.2 °F - 30.9 °F 48% 30.04 in 10.0 mi Calm Calm - N/A   Clear
9:35 PM 48.7 °F - 31.6 °F 52% 30.04 in 10.0 mi Calm Calm - N/A   Clear
9:55 PM 47.5 °F - 32.0 °F 55% 30.04 in 10.0 mi Calm Calm - N/A   Clear
10:15 PM 47.3 °F - 32.2 °F 56% 30.04 in 10.0 mi South 4.6 mph - N/A   Clear
10:35 PM 45.9 °F 44.6 °F 32.9 °F 61% 30.03 in 10.0 mi South 3.5 mph - N/A   Clear
10:55 PM 45.7 °F 44.4 °F 32.5 °F 60% 30.03 in 10.0 mi South 3.5 mph - N/A   Clear
11:15 PM 45.5 °F - 32.2 °F 60% 30.03 in 10.0 mi Calm Calm - N/A   Clear
11:35 PM 43.5 °F - 32.5 °F 65% 30.03 in 10.0 mi Calm Calm - N/A   Clear
11:55 PM 43.9 °F - 33.1 °F 66% 30.03 in 10.0 mi Calm Calm - N/A   Clear